Location: Star Dogged Moon Observatory
(29.7756°N, 82.0783°W)
Time: 23:21:26
(UTC-04:00)

Amateur Radio Satellites - All Passes

Search period start: 03 August 2015 22:51
Search period end: 04 August 2015 22:51
Location: Star Dogged Moon Observatory, 29.7756°N, 82.0783°W

Satellite Date Start Highest point End Downlink Frequencies (MHz)
Time Altitude Azimuth
DX 1 03 Aug 22:51:28 22:55:02 26° 72° (ENE) 22:58:41 434.975-435.025
M-CUBED/EXP-1 PRIME 03 Aug 22:54:30 22:59:09 54° 103° (ESE) 23:03:34 437.505
HO-68 03 Aug 23:07:33 23:11:14 14° 269° (W) 23:14:20 435.675
YUBILEINY 03 Aug 23:08:55 23:09:19 10° 82° (E) 23:10:42 435.215
VERMONT LUNAR 03 Aug 23:11:46 23:14:56 68° 28° (NNE) 23:18:03 437.305
BEESAT 2 03 Aug 23:11:49 23:15:50 63° 115° (ESE) 23:19:54 435.950
DELFI C3 03 Aug 23:13:54 23:17:31 30° 263° (W) 23:21:07 145.870
VELOX 1 03 Aug 23:16:50 23:20:36 29° 73° (ENE) 23:24:26 145.980
UNISAT 6 03 Aug 23:18:06 23:22:06 28° 96° (E) 23:26:08 437.425
AUBIESAT-1 03 Aug 23:20:54 23:25:37 87° 287° (WNW) 23:30:04 437.475
ZACube-1 03 Aug 23:25:16 23:28:50 26° 264° (W) 23:32:24 437.345
AIST 2 03 Aug 23:28:12 23:30:52 17° 110° (ESE) 23:33:41 435.215
QB50P1 03 Aug 23:32:11 23:33:38 12° 92° (E) 23:35:22 145.935-145.965
NANOSAT C BR1 03 Aug 23:32:17 23:33:36 12° 92° (E) 23:35:13 145.865
ESTCUBE 1 03 Aug 23:39:55 23:44:05 38° 74° (ENE) 23:48:18 437.505/2401.250
FUNcube-1 03 Aug 23:46:45 23:49:21 15° 267° (W) 23:51:46 145.935
HUMSAT D 03 Aug 23:46:58 23:50:49 37° 262° (W) 23:54:43 437.325/437.525
BEESAT 3 03 Aug 23:47:43 23:51:25 33° 302° (WNW) 23:55:07 437.485
UKube-1 03 Aug 23:53:59 23:58:13 54° 260° (W) 00:02:27 .
TIGRISAT 03 Aug 23:59:34 00:04:18 84° 100° (E) 00:09:00 435.000
ANTELSAT 04 Aug 00:02:42 00:07:26 86° 282° (WNW) 00:12:08 437.575/2403.000
RS-15 04 Aug 00:11:19 00:19:08 20° 321° (NW) 00:26:37 29.354- 29.394
PHONESAT 2.4 04 Aug 00:13:49 00:16:56 29° 20° (NNE) 00:20:03 2401.200-2431.200
AISAT 04 Aug 00:14:36 00:18:52 49° 260° (W) 00:23:08 437.250
POLYITAN 1 04 Aug 00:14:38 00:18:43 44° 99° (E) 00:22:51 437.675
BUGSAT 1 04 Aug 00:18:50 00:22:17 26° 97° (E) 00:25:50 437.445
CUBEBUG 1 04 Aug 00:19:06 00:23:29 86° 259° (WSW) 00:27:50 437.445
AIST 1 04 Aug 00:19:48 00:23:51 43° 267° (W) 00:27:52
50 SAT 04 Aug 00:22:29 00:25:53 29° 263° (W) 00:29:17 437.505
DX 1 04 Aug 00:28:06 00:31:16 19° 265° (W) 00:34:18 434.975-435.025
POPSAT HIP 1 04 Aug 00:30:18 00:34:34 70° 102° (ESE) 00:38:49 437.405
M-CUBED/EXP-1 PRIME 04 Aug 00:31:11 00:33:26 13° 296° (WNW) 00:35:24 437.505
QB50P2 04 Aug 00:38:45 00:43:02 87° 287° (WNW) 00:47:19 145.880/145.840
SPROUT 04 Aug 00:43:34 00:47:37 45° 75° (ENE) 00:51:43 437.525
TISAT 1 04 Aug 00:43:55 00:47:21 26° 73° (ENE) 00:50:51 437.305
Cosmos 2491 04 Aug 00:44:35 00:53:13 68° 267° (W) 01:01:49 435.465 / 435.565
VERMONT LUNAR 04 Aug 00:49:53 00:51:22 13° 220° (SW) 00:52:45 437.305
VELOX 1 04 Aug 00:54:07 00:57:11 18° 266° (W) 01:00:05 145.980
UNISAT 6 04 Aug 00:55:03 00:58:43 22° 288° (WNW) 01:02:14 437.425
YUBILEINY 04 Aug 00:56:27 01:05:07 81° 95° (E) 01:13:53 435.215
DUCHIFAT 1 04 Aug 00:59:55 01:04:02 49° 285° (WNW) 01:08:09 145.980
AIST 2 04 Aug 01:05:25 01:09:13 31° 302° (WNW) 01:13:00 435.215
NANOSAT C BR1 04 Aug 01:05:38 01:09:39 40° 285° (WNW) 01:13:38 145.865
QB50P1 04 Aug 01:05:42 01:09:42 40° 285° (WNW) 01:13:41 145.935-145.965
ESTCUBE 1 04 Aug 01:18:33 01:21:07 14° 267° (W) 01:23:27 437.505/2401.250
SWISSCUBE 04 Aug 01:30:47 01:33:37 16° 70° (ENE) 01:36:41 437.505
O/OREOS (USA 219) 04 Aug 01:43:18 01:47:45 68° 289° (WNW) 01:52:13 437.305
PHONESAT 2.4 04 Aug 01:51:37 01:54:58 44° 215° (SW) 01:58:17 2401.200-2431.200
ITUPSAT 1 04 Aug 01:52:12 01:56:04 25° 72° (ENE) 02:00:02 437.325
POLYITAN 1 04 Aug 01:52:39 01:54:17 12° 290° (WNW) 01:55:38 437.675
BUGSAT 1 04 Aug 01:54:50 01:57:35 17° 288° (WNW) 02:00:11 437.445
JUGNU 04 Aug 01:59:27 02:03:48 21° 167° (SSE) 02:08:11 437.505
Cosmos 2504 04 Aug 02:06:48 02:11:38 21° 85° (E) 02:17:01 435.465 / 435.565
TISAT 1 04 Aug 02:20:13 02:23:07 18° 265° (W) 02:25:52 437.305
SPROUT 04 Aug 02:23:28 02:24:00 10° 269° (W) 02:24:11 437.525
Oscar 19 04 Aug 02:38:05 02:43:10 56° 100° (E) 02:48:17 437.125/150
BEESAT 04 Aug 02:45:17 02:50:04 77° 259° (W) 02:54:52 436.000
KKS-1 04 Aug 02:49:01 02:51:20 15° 70° (ENE) 02:53:53 437.445
YUBILEINY 04 Aug 02:57:55 03:03:05 16° 293° (WNW) 03:07:37 435.215
SWISSCUBE 04 Aug 03:06:42 03:11:12 39° 261° (W) 03:15:41 437.505
JAS-2 04 Aug 03:20:23 03:25:33 20° 90° (E) 03:30:57 435.910
ITUPSAT 1 04 Aug 03:29:54 03:33:53 25° 264° (W) 03:37:45 437.325
JUGNU 04 Aug 03:47:11 03:52:22 31° 176° (S) 03:57:32 437.505
STARS 04 Aug 03:48:37 03:52:44 43° 75° (ENE) 03:56:53 437.465
Cosmos 2504 04 Aug 03:56:27 04:03:18 51° 280° (W) 04:10:35 435.465 / 435.565
SRMSAT 04 Aug 03:57:13 04:01:38 22° 167° (SSE) 04:06:06 437.500
Gurwin Techsat 1B 04 Aug 04:02:28 04:07:46 73° 285° (WNW) 04:13:03 435.225
MOZHAYETS 4 04 Aug 04:03:51 04:04:48 11° 69° (ENE) 04:06:05
ITAMSAT 1 04 Aug 04:06:03 04:11:14 77° 285° (WNW) 04:16:23 435.822/435.867
CUSAT 1 04 Aug 04:19:10 04:21:58 36° 97° (E) 04:24:26 437.405
Oscar 19 04 Aug 04:19:32 04:22:07 13° 292° (WNW) 04:24:24 437.125/150
DANDE 04 Aug 04:22:14 04:24:54 22° 98° (E) 04:27:16 436.750
KKS-1 04 Aug 04:23:36 04:27:42 36° 262° (W) 04:31:46 437.445
ISS 04 Aug 04:28:59 04:32:13 72° 228° (SW) 04:35:27 145.825
RS-15 04 Aug 04:52:15 04:58:40 16° 34° (NE) 05:05:55 29.354- 29.394
AO-7 04 Aug 05:00:28 05:08:28 51° 101° (ESE) 05:16:29 29.400- 29.500
JAS-2 04 Aug 05:03:21 05:11:10 67° 286° (WNW) 05:18:34 435.910
HORYU 2 04 Aug 05:27:03 05:31:34 80° 283° (WNW) 05:36:02 437.375
STARS 04 Aug 05:27:53 05:29:26 11° 268° (W) 05:30:40 437.465
JUGNU 04 Aug 05:35:51 05:40:58 30° 186° (S) 05:46:02 437.505
MOZHAYETS 4 04 Aug 05:37:04 05:41:37 56° 260° (W) 05:46:11
GONETS M04 04 Aug 05:39:57 05:47:11 32° 88° (E) 05:54:40
SRMSAT 04 Aug 05:45:13 05:50:22 31° 177° (S) 05:55:31 437.500
CUBESAT XI-V 04 Aug 06:04:36 06:07:47 19° 72° (ENE) 06:11:08 437.345
Cubesat XI-IV 04 Aug 06:43:29 06:46:55 18° 93° (E) 06:50:33 437.490
AO-7 04 Aug 06:53:59 07:00:57 29° 296° (WNW) 07:07:38 29.400- 29.500
JAS-2 04 Aug 06:54:16 06:55:00 10° 299° (WNW) 06:55:03 435.910
Cosmos 2499 04 Aug 07:02:07 07:07:06 21° 85° (E) 07:12:43 435.465 / 435.565
RS-15 04 Aug 07:02:22 07:14:10 65° 59° (ENE) 07:26:21 29.354- 29.394
PRISM 04 Aug 07:20:03 07:23:34 27° 73° (ENE) 07:27:08 437.425
JUGNU 04 Aug 07:25:25 07:29:31 19° 195° (SSW) 07:33:32 437.505
SRMSAT 04 Aug 07:34:04 07:39:06 29° 187° (S) 07:44:07 437.500
GONETS M04 04 Aug 07:35:38 07:43:50 43° 282° (WNW) 07:51:55
CUTE-I 04 Aug 07:36:53 07:42:09 67° 101° (E) 07:47:26 437.470
CUBESAT XI-V 04 Aug 07:40:51 07:45:02 31° 263° (W) 07:49:09 437.345
STRAND 1 04 Aug 07:52:24 07:57:33 88° 70° (ENE) 08:02:43 437.568
BRITE-PL 04 Aug 08:06:13 08:08:45 15° 94° (E) 08:11:39 437.365/2234.400
BEESAT 3 04 Aug 08:12:00 08:15:04 21° 55° (NE) 08:18:12 437.485
Cubesat XI-IV 04 Aug 08:22:13 08:27:12 41° 287° (WNW) 08:32:08 437.490
SO-50 04 Aug 08:34:29 08:38:55 46° 113° (ESE) 08:43:34 436.795
HO-68 04 Aug 08:51:35 08:56:24 20° 94° (E) 09:01:34 435.675
Cosmos 2499 04 Aug 08:52:32 08:59:41 54° 281° (W) 09:07:22 435.465 / 435.565
PRISM 04 Aug 08:56:09 08:59:00 17° 265° (W) 09:01:42 437.425
PCSat 04 Aug 09:00:37 09:06:01 84° 293° (WNW) 09:11:28 145.827
DOVE 4 04 Aug 09:08:31 09:12:33 27° 96° (E) 09:16:52 437.250
BEESAT 2 04 Aug 09:14:11 09:18:14 88° 245° (WSW) 09:22:13 435.950
RS-15 04 Aug 09:16:07 09:26:07 30° 253° (WSW) 09:35:46 29.354- 29.394
CUTE-I 04 Aug 09:19:51 09:21:45 12° 293° (WNW) 09:23:18 437.470
SRMSAT 04 Aug 09:23:53 09:27:47 18° 195° (SSW) 09:31:37 437.500
COMPASS 1 04 Aug 09:24:36 09:27:04 16° 93° (E) 09:29:43 437.405
AIST 2 04 Aug 09:32:39 09:36:11 27° 57° (ENE) 09:39:42 435.215
GOMX 1 04 Aug 09:36:03 09:40:48 86° 284° (WNW) 09:45:54 467.674
M-CUBED/EXP-1 PRIME 04 Aug 09:37:09 09:40:25 25° 67° (ENE) 09:44:00 437.505
BRITE-PL 04 Aug 09:43:05 09:47:23 40° 284° (WNW) 09:51:58 437.365/2234.400
SEEDS 04 Aug 09:44:10 09:48:06 37° 98° (E) 09:52:03 437.485
BEESAT 3 04 Aug 09:49:46 09:52:55 22° 249° (WSW) 09:55:57 437.485
CUTE 1.7 + AOD 2 04 Aug 09:52:26 09:56:42 64° 100° (E) 10:00:55 437.475
CANX-2 04 Aug 10:01:20 10:05:39 85° 282° (WNW) 10:09:55 2200.000
AAUSAT CUBESAT 2 04 Aug 10:01:45 10:05:41 39° 98° (E) 10:09:36 437.432
AUBIESAT-1 04 Aug 10:02:29 10:06:17 42° 70° (ENE) 10:10:26 437.475
FUNcube-1 04 Aug 10:06:22 10:06:41 10° 90° (E) 10:07:23 145.935
Oscar 11 04 Aug 10:10:31 10:13:42 20° 95° (E) 10:17:00 145.826/435.025
UNISAT 6 04 Aug 10:13:39 10:14:57 11° 69° (ENE) 10:16:32 437.425
UWE-3 04 Aug 10:15:15 10:18:39 21° 94° (E) 10:22:12 435.000/436.395/437.385
SO-50 04 Aug 10:16:41 10:19:47 16° 310° (NW) 10:22:44 436.795
CINEMA 3 04 Aug 10:29:23 10:34:14 87° 282° (WNW) 10:39:13 145.822/145.860
CUBEBUG 2 04 Aug 10:37:12 10:41:46 50° 99° (E) 10:46:24 437.445
HO-68 04 Aug 10:37:32 10:44:34 59° 288° (WNW) 10:51:34 435.675
DOVE 4 04 Aug 10:46:17 10:50:13 25° 287° (WNW) 10:54:11 437.250
TIGRISAT 04 Aug 10:52:43 10:56:36 33° 73° (ENE) 11:00:36 435.000
ANTELSAT 04 Aug 10:55:55 10:59:56 38° 74° (ENE) 11:04:04 437.575/2403.000
DELFI C3 04 Aug 10:58:20 11:02:17 52° 100° (E) 11:06:13 145.870
COMPASS 1 04 Aug 10:59:07 11:02:48 29° 286° (WNW) 11:06:23 437.405
POLYITAN 1 04 Aug 11:03:09 11:05:34 16° 71° (ENE) 11:08:11 437.675
AIST 2 04 Aug 11:11:37 11:14:35 18° 249° (WSW) 11:17:22 435.215
M-CUBED/EXP-1 PRIME 04 Aug 11:12:10 11:15:12 20° 263° (W) 11:18:16 437.505
YUBILEINY 04 Aug 11:14:58 11:22:19 30° 74° (ENE) 11:29:54 435.215
POPSAT HIP 1 04 Aug 11:17:51 11:21:07 23° 73° (ENE) 11:24:29 437.405
ZACube-1 04 Aug 11:18:42 11:23:19 89° 115° (ESE) 11:27:55 437.345
SEEDS 04 Aug 11:21:32 11:23:36 13° 289° (WNW) 11:25:26 437.485
QB50P2 04 Aug 11:26:01 11:29:41 30° 74° (ENE) 11:33:25 145.880/145.840
HUMSAT D 04 Aug 11:36:28 11:40:42 52° 99° (E) 11:44:55 437.325/437.525
FUNcube-1 04 Aug 11:38:52 11:43:21 54° 284° (WNW) 11:47:49 145.935
AAUSAT CUBESAT 2 04 Aug 11:39:13 11:40:57 12° 290° (WNW) 11:42:27 437.432
AUBIESAT-1 04 Aug 11:40:02 11:41:21 11° 266° (W) 11:42:26 437.475
ESTCUBE 1 04 Aug 11:40:24 11:42:15 13° 92° (E) 11:44:22 437.505/2401.250
Cosmos 2491 04 Aug 11:43:07 11:50:02 28° 87° (E) 11:57:14 435.465 / 435.565
DUCHIFAT 1 04 Aug 11:46:01 11:50:04 51° 76° (ENE) 11:54:08 145.980
Oscar 11 04 Aug 11:46:16 11:49:51 24° 287° (WNW) 11:53:18 145.826/435.025
UNISAT 6 04 Aug 11:47:10 11:51:21 46° 261° (W) 11:55:37 437.425
UKube-1 04 Aug 11:47:27 11:51:28 38° 99° (E) 11:55:30 .
UWE-3 04 Aug 11:51:07 11:55:09 29° 287° (WNW) 11:59:08 435.000/436.395/437.385
NANOSAT C BR1 04 Aug 11:51:44 11:55:52 64° 77° (ENE) 12:00:01 145.865
QB50P1 04 Aug 11:51:59 11:56:08 66° 77° (ENE) 12:00:18 145.935-145.965
O/OREOS (USA 219) 04 Aug 11:59:10 12:03:47 84° 71° (ENE) 12:08:22 437.305
50 SAT 04 Aug 12:03:11 12:07:00 46° 99° (E) 12:10:48 437.505
AISAT 04 Aug 12:11:01 12:15:18 49° 100° (E) 12:19:37 437.250
CUBEBUG 1 04 Aug 12:14:22 12:18:01 27° 97° (E) 12:21:45 437.445
CUBEBUG 2 04 Aug 12:15:52 12:18:05 13° 290° (WNW) 12:20:02 437.445
DX 1 04 Aug 12:20:55 12:25:14 69° 284° (WNW) 12:29:32 434.975-435.025
TIGRISAT 04 Aug 12:30:55 12:33:30 15° 268° (W) 12:35:53 435.000
ANTELSAT 04 Aug 12:34:48 12:36:56 13° 268° (W) 12:38:50 437.575/2403.000
POLYITAN 1 04 Aug 12:37:31 12:41:15 30° 263° (W) 12:44:57 437.675
BUGSAT 1 04 Aug 12:37:37 12:41:34 52° 260° (W) 12:45:30 437.445
SPROUT 04 Aug 12:37:50 12:39:45 13° 92° (E) 12:41:55 437.525
AIST 1 04 Aug 12:42:32 12:46:49 56° 278° (W) 12:51:05
VELOX 1 04 Aug 12:48:53 12:53:14 57° 284° (WNW) 12:57:33 145.980
POPSAT HIP 1 04 Aug 12:53:46 12:56:56 20° 265° (W) 12:59:58 437.405
QB50P2 04 Aug 13:03:07 13:05:39 15° 267° (W) 13:08:00 145.880/145.840
YUBILEINY 04 Aug 13:11:02 13:19:23 47° 270° (W) 13:27:37 435.215
ESTCUBE 1 04 Aug 13:15:07 13:19:20 41° 286° (WNW) 13:23:31 437.505/2401.250
UKube-1 04 Aug 13:25:05 13:27:18 13° 290° (WNW) 13:29:18 .
Cosmos 2491 04 Aug 13:38:08 13:46:34 49° 281° (W) 13:54:54 435.465 / 435.565
Cosmos 2504 04 Aug 13:49:03 13:56:45 38° 77° (ENE) 14:04:37 435.465 / 435.565
Oscar 19 04 Aug 13:49:05 13:53:53 43° 74° (ENE) 13:58:44 437.125/150
AISAT 04 Aug 13:50:03 13:51:31 11° 291° (WNW) 13:52:41 437.250
CUBEBUG 1 04 Aug 13:51:08 13:54:13 19° 288° (WNW) 13:57:09 437.445
TISAT 1 04 Aug 14:08:55 14:13:08 72° 284° (WNW) 14:17:22 437.305
SPROUT 04 Aug 14:12:01 14:15:59 37° 285° (WNW) 14:19:56 437.525
BEESAT 04 Aug 14:51:44 14:56:16 44° 99° (E) 15:00:49 436.000
CUSAT 1 04 Aug 14:57:36 15:01:50 27° 80° (E) 15:07:12 437.405
DANDE 04 Aug 15:04:51 15:07:56 18° 80° (E) 15:11:51 436.750
JAS-2 04 Aug 15:09:23 15:14:28 29° 68° (ENE) 15:20:13 435.910
SWISSCUBE 04 Aug 15:12:42 15:17:28 87° 103° (ESE) 15:22:13 437.505
Gurwin Techsat 1B 04 Aug 15:17:21 15:22:40 84° 255° (WSW) 15:28:01 435.225
ITAMSAT 1 04 Aug 15:17:49 15:23:03 87° 72° (ENE) 15:28:17 435.822/435.867
Oscar 19 04 Aug 15:30:17 15:33:28 16° 267° (W) 15:36:24 437.125/150
ITUPSAT 1 04 Aug 15:35:37 15:40:19 58° 285° (WNW) 15:44:58 437.325
VERMONT LUNAR 04 Aug 15:40:47 15:43:19 23° 143° (SE) 15:45:53 437.305
Cosmos 2504 04 Aug 15:41:09 15:48:56 38° 271° (W) 15:56:32 435.465 / 435.565
STARS 04 Aug 15:45:52 15:47:55 13° 93° (E) 15:50:13 437.465
AO-7 04 Aug 15:52:54 16:00:28 41° 67° (ENE) 16:08:12 29.400- 29.500
HORYU 2 04 Aug 16:19:18 16:23:29 43° 74° (ENE) 16:27:44 437.375
KKS-1 04 Aug 16:20:10 16:24:37 67° 100° (E) 16:29:04 437.445
BEESAT 04 Aug 16:31:08 16:33:47 14° 291° (WNW) 16:36:11 436.000
CUSAT 1 04 Aug 16:39:44 16:44:18 30° 263° (W) 16:49:49 437.405
DANDE 04 Aug 16:46:33 16:50:53 37° 263° (W) 16:56:28 436.750
JAS-2 04 Aug 16:53:55 16:59:23 35° 265° (W) 17:05:24 435.910
PHONESAT 2.4 04 Aug 16:57:45 16:58:36 11° 139° (SE) 16:59:36 2401.200-2431.200
SO-50 04 Aug 17:14:39 17:15:31 11° 46° (NE) 17:16:40 436.795
VERMONT LUNAR 04 Aug 17:16:55 17:19:54 39° 335° (NNW) 17:22:54 437.305
STARS 04 Aug 17:20:24 17:24:32 38° 286° (WNW) 17:28:38 437.465
MOZHAYETS 4 04 Aug 17:38:13 17:42:44 55° 100° (E) 17:47:13
AO-7 04 Aug 17:45:44 17:53:18 36° 261° (W) 18:00:43 29.400- 29.500
GONETS M04 04 Aug 17:52:31 18:01:14 73° 83° (E) 18:10:00
PCSat 04 Aug 17:55:25 17:59:34 23° 56° (NE) 18:03:50 145.827
HORYU 2 04 Aug 17:58:29 18:00:22 12° 268° (W) 18:01:58 437.375
Cubesat XI-IV 04 Aug 18:00:05 18:03:25 18° 69° (ENE) 18:06:58 437.490
PHONESAT 2.4 04 Aug 18:32:45 18:36:13 89° 168° (SSE) 18:39:45 2401.200-2431.200
Cosmos 2499 04 Aug 18:50:05 18:58:16 41° 77° (ENE) 19:06:28 435.465 / 435.565
SO-50 04 Aug 18:51:50 18:56:46 81° 243° (WSW) 19:01:31 436.795
CUTE-I 04 Aug 18:52:39 18:57:54 61° 75° (ENE) 19:03:12 437.470
VERMONT LUNAR 04 Aug 18:55:25 18:57:09 14° 351° (N) 18:58:52 437.305
RS-15 04 Aug 19:16:41 19:17:38 10° 102° (ESE) 19:19:58 29.354- 29.394
MOZHAYETS 4 04 Aug 19:18:19 19:19:32 11° 291° (WNW) 19:20:26
ISS 04 Aug 19:27:34 19:30:44 58° 132° (SE) 19:33:57 145.825
Cubesat XI-IV 04 Aug 19:38:03 19:43:12 45° 261° (W) 19:48:20 437.490
PCSat 04 Aug 19:38:07 19:43:06 37° 251° (WSW) 19:48:01 145.827
CUBESAT XI-V 04 Aug 19:42:58 19:47:34 78° 283° (WNW) 19:52:08 437.345
GONETS M04 04 Aug 19:51:52 19:57:22 18° 276° (W) 20:02:18
STRAND 1 04 Aug 20:09:13 20:14:08 49° 100° (E) 20:19:04 437.568
DOVE 4 04 Aug 20:11:25 20:12:27 11° 70° (ENE) 20:13:45 437.250
PHONESAT 2.4 04 Aug 20:11:44 20:14:30 21° 344° (NNW) 20:17:15 2401.200-2431.200
SEEDS 04 Aug 20:32:06 20:33:57 13° 71° (ENE) 20:36:02 437.485
VERMONT LUNAR 04 Aug 20:33:05 20:34:42 13° 8° (N) 20:36:19 437.305
CUTE-I 04 Aug 20:36:16 20:38:26 12° 269° (W) 20:40:12 437.470
GOMX 1 04 Aug 20:39:07 20:43:11 48° 76° (ENE) 20:47:12 467.674
CUTE 1.7 + AOD 2 04 Aug 20:40:03 20:43:13 21° 73° (ENE) 20:46:32 437.475
PRISM 04 Aug 20:42:43 20:46:49 76° 283° (WNW) 20:50:52 437.425
Cosmos 2499 04 Aug 20:43:24 20:51:19 36° 272° (W) 20:58:56 435.465 / 435.565
BRITE-PL 04 Aug 20:48:21 20:52:44 65° 259° (W) 20:56:55 437.365/2234.400
AAUSAT CUBESAT 2 04 Aug 20:48:23 20:50:13 13° 71° (ENE) 20:52:16 437.432
CANX-2 04 Aug 20:48:29 20:52:12 30° 74° (ENE) 20:56:00 2200.000
HO-68 04 Aug 20:58:58 21:05:53 58° 72° (ENE) 21:12:53 435.675
ISS 04 Aug 21:06:20 21:07:28 11° 327° (NNW) 21:08:30 145.825
RS-15 04 Aug 21:17:54 21:28:41 75° 114° (ESE) 21:39:48 29.354- 29.394
CINEMA 3 04 Aug 21:25:52 21:29:42 38° 74° (ENE) 21:33:37 145.822/145.860
CUBEBUG 2 04 Aug 21:30:52 21:33:42 18° 71° (ENE) 21:36:44 437.445
DELFI C3 04 Aug 21:40:59 21:43:10 15° 72° (ENE) 21:45:33 145.870
COMPASS 1 04 Aug 21:43:23 21:47:36 83° 78° (ENE) 21:51:50 437.405
DOVE 4 04 Aug 21:46:00 21:49:56 40° 262° (W) 21:53:50 437.250
STRAND 1 04 Aug 21:50:07 21:52:59 15° 292° (WNW) 21:55:35 437.568
PHONESAT 2.4 04 Aug 21:51:20 21:53:17 14° 1° (N) 21:55:14 2401.200-2431.200
BEESAT 3 04 Aug 21:59:23 22:01:52 16° 110° (ESE) 22:04:30 437.485
SEEDS 04 Aug 22:05:28 22:09:26 38° 262° (W) 22:13:24 437.485
VERMONT LUNAR 04 Aug 22:09:03 22:12:00 34° 24° (NNE) 22:14:55 437.305
ZACube-1 04 Aug 22:09:10 22:12:50 31° 74° (ENE) 22:16:38 437.345
CUTE 1.7 + AOD 2 04 Aug 22:15:36 22:19:02 23° 265° (W) 22:22:24 437.475
AAUSAT CUBESAT 2 04 Aug 22:21:36 22:25:30 37° 262° (W) 22:29:25 437.432
HUMSAT D 04 Aug 22:23:31 22:26:06 17° 72° (ENE) 22:28:53 437.325/437.525
CANX-2 04 Aug 22:25:30 22:28:12 16° 267° (W) 22:30:43 2200.000
FUNcube-1 04 Aug 22:28:32 22:32:36 53° 76° (ENE) 22:36:47 145.935
Oscar 11 04 Aug 22:34:01 22:38:20 68° 260° (W) 22:42:39 145.826/435.025
UKube-1 04 Aug 22:37:42 22:40:13 16° 71° (ENE) 22:42:55 .
UWE-3 04 Aug 22:41:44 22:45:53 71° 259° (W) 22:50:09 435.000/436.395/437.385
50 SAT 04 Aug 22:43:26 22:44:32 11° 71° (ENE) 22:45:52 437.505
